Simultaneous Nadir Overpasses (SNOs) Predictions

Prediction of SNOs between GOES-14 and NOAA-20 Satellite Orbit:

Table of predicted SNOs for the next 14.0 days since TLE Epoch: 7/21/2023
Index Date Time (GOES-14) GOES-14 Lat,Lon NOAA-20 Lat,Lon Distance(km) Time Diff (sec)
1 07/21/2023 20:53:35 0.30,-108.55 -0.52,-112.22 418.32 80
2 07/22/2023 20:37:30 0.28,-108.55 0.49,-107.69 98.46 80
3 07/24/2023 08:56:39 -0.31,-108.65 0.66,-112.97 492.44 80
4 07/25/2023 08:40:34 -0.30,-108.65 -0.36,-108.44 23.85 80
5 07/27/2023 20:41:06 0.32,-108.54 0.18,-109.22 77.42 80
6 07/28/2023 20:25:00 0.31,-108.53 1.15,-104.68 438.69 80
7 07/30/2023 08:44:10 -0.35,-108.62 -0.06,-109.97 153.02 80
8 07/31/2023 08:28:04 -0.33,-108.61 -1.02,-105.43 362.51 80
9 08/01/2023 20:47:21 0.37,-108.50 -0.16,-110.74 256.08 80
10 08/02/2023 20:31:16 0.35,-108.49 0.87,-106.21 259.93 80
11 08/04/2023 08:50:24 -0.39,-108.59 0.27,-111.49 330.82 80
